Miscellaneous Local Product
Issued by NWS North Platte, NE

Home | Current Version | Previous Version | Graphics & Text | Print | Product List | Glossary On
Versions: 1 2 3 4 5 6 7 8 9 10 11 12 13 14 15 16 17 18 19 20 21 22 23 24 25 26 27 28 29 30 31 32 33 34 35 36 37 38 39 40 41 42 43 44 45 46 47 48 49 50
000
AXUS43 KLBF 220610
MISLBF


WESTERN AND NORTH CENTRAL NEBRASKA HOURLY WEATHER ROUNDUP
NATIONAL WEATHER SERVICE NORTH PLATTE NE
100 AM CDT MON SEP 22 2014

***STATIONS NOT REPORTING VARIABLES SUCH AS SKY/WEATHER OR
PRESSURE ARE PROVIDED BY THE NEBRASKA DEPARTMENT OF
ROADS...RAWS...AND APRS NETWORKS...AND ARE NOT UNDER
NATIONAL WEATHER SERVICE QUALITY CONTROL***

...OBSERVATIONS IN AND NEAR THE EASTERN PANHANDLE OF NEBRASKA...

CITY           SKY/WX    TMP DP  RH WIND       PRES   REMARKS
PINE RIDGE     PTCLDY    62  36  37 S9        30.24F
CHADRON        PTCLDY    64  38  38 S14G20    30.22F
ALLIANCE       PTCLDY    54  42  64 SE9       30.27F
SIDNEY         PTCLDY    57  41  55 SE9       30.31S
WHITECLAY        N/A     51  36  57 SE12        N/A
RUSHVILLE        N/A     50  34  53 S12         N/A
LISCO            N/A     61  38  41 E7          N/A
BIG SPRINGS      N/A     65  44  46 SE7         N/A
$$

...OBSERVATIONS IN NORTH CENTRAL NEBRASKA...

CITY           SKY/WX    TMP DP  RH WIND       PRES   REMARKS
VALENTINE      PTCLDY    44  38  79 CALM      30.28F
THEDFORD       CLEAR     49  40  70 SE6       30.30F
AINSWORTH      CLEAR     43  39  86 S7        30.29S
O`NEILL        CLEAR     49  46  91 CALM      30.30S
ORD            CLEAR     43  41  93 CALM      30.30R
BROKEN BOW     CLEAR     44  40  85 CALM      30.31S
SPRINGVIEW       N/A     42  39  89 CALM        N/A
ROSE             N/A     53  45  75 E3          N/A
NEWPORT          N/A     41  40  96 CALM        N/A
COMSTOCK         N/A     50  44  80 S7          N/A
CHAMBERS         N/A     46  41  84 CALM        N/A
$$

...OBSERVATIONS IN SOUTHWEST NEBRASKA AND FAR NORTHEAST COLORADO...

CITY           SKY/WX    TMP DP  RH WIND       PRES   REMARKS
WRAY           CLOUDY    65  40  39 SE10      30.31R
HOLYOKE        FAIR      59  45  58 SE8       30.30F
IMPERIAL       MOCLDY    59  41  51 SE8       30.30F
OGALLALA       MOCLDY    63  42  47 SE7       30.29F
NORTH PLATTE   CLOUDY    50  43  77 SE6       30.31R
MCCOOK         CLOUDY    58  44  60 E3        30.31S
LEXINGTON      PTCLDY    49  45  87 CALM      30.32R
PAXTON           N/A     54  45  71 CALM        N/A
SUTHERLAND       N/A     53  39  59 E3          N/A
BRADY            N/A     51  42  72 CALM        N/A
GOTHENBURG       N/A     53  41  64 CALM        N/A
CALLAWAY         N/A     46  43  89 SE6         N/A
$$

...SOME WEATHER OBSERVATIONS FROM AROUND THE REGION...

CITY           SKY/WX    TMP DP  RH WIND       PRES   REMARKS
DENVER         CLOUDY    61  55  81 S16       30.29F
LARAMIE        MOCLDY    51  41  68 S13       30.32F
CHEYENNE       MOCLDY    55  39  54 S14       30.32F
SCOTTSBLUFF    PTCLDY    59  44  57 E10       30.26F
RAPID CITY     PTCLDY    53  36  52 S5        30.22F
PIERRE         CLEAR     44  39  82 E5        30.22F
WINNER         FAIR      46  40  79 S6        30.26F
SIOUX FALLS    CLEAR     47  45  93 CALM      30.26F
OMAHA          CLEAR     54  50  86 CALM      30.28R
GRAND ISLAND   CLEAR     50  44  80 CALM      30.31S
KANSAS CITY    CLEAR     56  49  77 N3        30.26R
WICHITA        PTCLDY    63  46  54 NE7       30.26S
HAYS           PTCLDY    57  39  51 NE6       30.30S
LIBERAL        CLEAR     64  43  45 E7        30.32S
GOODLAND       CLOUDY    61  42  49 SE12      30.32F
$$



USA.gov is the U.S. government's official web portal to all federal, state and local government web resources and services.